Location: Domont
(49.0278°N, 2.3264°E)
Time: 00:10:12
(UTC+00:00)

FENGYUN 3D - Visible Passes

Search period start: 11 August 2022 00:00
Search period end: 21 August 2022 00:00
Orbit: 826 x 830 km, 98.8° (Epoch: 10 August)

Date Brightness Start Highest point End Pass type
(mag) Time Alt. Az. Time Alt. Az. Time Alt. Az.
11 Aug ? 01:59:36 10° NNE 02:04:59 66° ESE 02:07:46 29° S visible
11 Aug ? 03:40:37 10° N 03:44:46 23° WNW 03:48:54 10° WSW visible
12 Aug ? 01:41:14 10° NNE 01:46:27 47° E 01:49:00 27° SSE visible
12 Aug ? 03:21:49 10° N 03:26:29 31° WNW 03:30:31 13° WSW visible
13 Aug ? 01:22:59 10° NNE 01:27:51 33° E 01:30:13 24° SE visible
13 Aug ? 03:03:08 10° N 03:08:11 42° WNW 03:11:44 18° SW visible
14 Aug ? 01:04:53 10° NE 01:09:13 24° E 01:11:27 19° SE visible
14 Aug ? 02:44:31 10° N 02:49:48 57° WNW 02:52:58 24° SW visible
15 Aug ? 00:47:02 10° NE 00:50:31 17° E 00:52:40 14° ESE visible
15 Aug ? 02:25:58 10° NNE 02:31:23 79° WNW 02:34:11 30° SSW visible
15 Aug ? 04:07:43 10° NNW 04:10:47 16° NW 04:13:51 10° W visible
16 Aug ? 00:29:48 10° ENE 00:31:46 12° E 00:33:43 10° ESE visible
16 Aug ? 02:07:30 10° NNE 02:12:55 76° ESE 02:15:24 33° S visible
16 Aug ? 03:48:42 10° N 03:52:35 21° WNW 03:56:28 10° WSW visible
17 Aug ? 01:49:06 10° NNE 01:54:24 54° E 01:56:38 33° SSE visible
17 Aug ? 03:29:52 10° N 03:34:20 27° WNW 03:38:09 13° WSW visible
18 Aug ? 01:30:48 10° NNE 01:35:49 38° E 01:37:51 28° SE visible
18 Aug ? 03:11:08 10° N 03:16:02 37° WNW 03:19:22 18° WSW visible
19 Aug ? 01:12:37 10° NE 01:17:13 28° E 01:19:05 23° SE visible
19 Aug ? 02:52:29 10° N 02:57:41 50° WNW 03:00:35 25° SW visible
20 Aug ? 00:54:38 10° NE 00:58:32 20° E 01:00:18 17° ESE visible
20 Aug ? 02:33:54 10° N 02:39:17 69° WNW 02:41:48 32° SW visible
20 Aug ? 04:15:58 10° NNW 04:18:35 14° NW 04:21:12 10° W visible
